[[{"header":{"parameterUnit":"m.s-1","parameterCategory":1,"la1":30.2991,"la2":30.254,"lo1":-89.0895,"lo2":-89.0444,"dy":0.0017,"dx":0.0017,"nx":28,"ny":28,"refTime":"2023-07-31T09:00:00:Z","depth":0,"parameterNumber":2,"parameterNumberName":"U-component_of_WINDS"},"data":[0,0,0,0,0,0,0,0,0,0,0,0,0,0,0,0,0,0,0,0,0,0,0,0,0,0,0,0,0,0,0,0,0,0,0,0,0,0,0,0,0,0,0,0,0,0,0,0,0,0,0,0,0,0,0,0,0,0,-0.1363,-0.1363,0,-0.1393,-0.1393,-0.1394,-0.1379,-0.1379,-0.1378,-0.1377,-0.1406,-0.1407,-0.1409,0,0,0,0,0,0,0,0,0,0,0,0,0,-0.129,-0.1292,-0.1363,-0.1363,-0.1364,-0.1393,-0.1393,-0.1394,-0.138,-0.1379,-0.1378,-0.1377,-0.1406,-0.1407,-0.1409,0,0,0,0,0,0,0,0,0,0,0,0,0,-0.1321,-0.1292,-0.1363,-0.136,-0.136,-0.1393,-0.1393,-0.1394,-0.138,-0.1379,-0.1377,-0.1376,-0.1405,-0.1407,-0.1409,-0.1446,0,0,-0.1416,-0.1417,0,0,0,0,0,0,0,0,-0.1319,-0.1324,-0.136,-0.136,-0.136,-0.1381,-0.1378,-0.1411,-0.138,-0.1372,-0.1377,-0.1376,-0.1399,-0.1401,-0.1409,-0.1447,-0.1448,-0.1416,-0.1418,-0.1419,-0.1419,0,0,0,0,0,0,0,-0.1317,-0.1322,-0.1375,-0.1361,-0.1361,-0.1356,-0.136,-0.1384,-0.1391,-0.1373,-0.1372,-0.1376,-0.1398,-0.1407,-0.141,-0.1449,-0.1416,-0.1418,-0.142,-0.142,-0.1517,-0.1518,0,0,0,0,0,0,-0.1315,-0.1321,-0.1374,-0.1376,-0.1337,-0.1359,-0.1362,-0.1376,-0.1391,-0.1392,-0.1377,-0.1375,-0.1404,-0.1407,-0.1411,-0.1454,-0.1419,-0.1421,-0.1422,-0.1516,-0.1517,-0.1518,0,0,0,0,0,0,-0.1314,-0.132,-0.1373,-0.1348,-0.1354,-0.1361,-0.1376,-0.1377,-0.1386,-0.1394,-0.1395,-0.1385,-0.1403,-0.1408,-0.1437,-0.1454,-0.1422,-0.1424,-0.1514,-0.1516,-0.1518,-0.154,0,0,0,0,0,0,-0.1312,-0.132,-0.1335,-0.1348,-0.1356,-0.1399,-0.1378,-0.1378,-0.139,-0.1388,-0.1402,-0.1403,-0.1403,-0.1434,-0.1439,-0.1457,-0.1425,-0.1512,-0.1515,-0.1517,-0.1538,-0.1543,-0.1547,0,0,0,0,0,-0.1309,-0.1339,-0.1335,-0.1342,-0.1374,-0.14,-0.1404,-0.1404,-0.1391,-0.1406,-0.1411,-0.1402,-0.1452,-0.1437,-0.1443,-0.1462,-0.1511,-0.1514,-0.1517,-0.1536,-0.1542,-0.1546,0,0,0,0,0,0,-0.1327,-0.1341,-0.1337,-0.1372,-0.1385,-0.1398,-0.1416,-0.141,-0.1426,-0.1424,-0.1422,-0.1425,-0.1456,-0.1462,-0.1445,-0.1497,-0.148,-0.1484,-0.1492,-0.1497,-0.1502,-0.1499,-0.1427,0,0,0,0,0,-0.1335,-0.1356,-0.1367,-0.1397,-0.1404,-0.1409,-0.142,-0.1419,-0.1432,-0.1437,-0.1444,-0.1456,-0.1474,-0.1486,-0.1504,-0.1539,-0.1541,-0.1555,-0.1559,-0.1562,-0.1566,-0.1584,-0.1589,-0.1527,-0.1527,-0.1527,0,0,-0.1351,-0.1362,-0.1375,-0.1401,-0.1411,-0.1431,-0.1413,-0.1436,-0.1451,-0.144,-0.1468,-0.1474,-0.1487,-0.1519,-0.1534,-0.1525,-0.1583,-0.1566,-0.1569,-0.157,-0.1587,-0.1593,-0.1598,-0.1529,-0.1529,-0.1529,0,0,-0.1392,-0.1403,-0.1429,-0.1439,-0.1454,-0.1457,-0.1463,-0.1477,-0.148,-0.1509,-0.1501,-0.1518,-0.155,-0.1559,-0.1568,-0.1612,-0.1604,-0.1618,-0.164,-0.1657,-0.1662,-0.1666,-0.1681,-0.1686,-0.1621,-0.1621,-0.1621,0,-0.1411,-0.1442,-0.1442,-0.1466,-0.1476,-0.1468,-0.1494,-0.1504,-0.1523,-0.1531,-0.1521,-0.156,-0.1569,-0.1602,-0.1613,-0.1621,-0.1627,-0.1616,-0.1662,-0.1666,-0.167,-0.1684,-0.1689,-0.1622,-0.1622,-0.1622,-0.1622,0,-0.1463,-0.1485,-0.1504,-0.1524,-0.1537,-0.1561,-0.1564,-0.1578,-0.1575,-0.1579,-0.1607,-0.1617,-0.1636,-0.1644,-0.1642,-0.1677,-0.1671,-0.1662,-0.1644,-0.1677,-0.169,-0.1695,-0.1625,-0.1624,-0.1624,-0.1623,0,0,-0.1515,-0.1535,-0.1542,-0.155,-0.1566,-0.1583,-0.1606,-0.1625,-0.1636,-0.165,-0.1669,-0.1696,-0.1687,-0.1697,-0.1696,-0.1711,-0.1744,-0.1699,-0.17,-0.1706,-0.1782,-0.1788,-0.1794,-0.1739,-0.174,-0.1741,-0.178,0,-0.1556,-0.1598,-0.1599,-0.1637,-0.1656,-0.1648,-0.1669,-0.168,-0.1684,-0.1701,-0.1705,-0.1723,-0.1711,-0.1717,-0.1732,-0.1737,-0.1759,-0.1734,-0.1755,-0.1756,-0.1751,-0.1801,-0.1808,-0.1845,-0.1785,-0.1786,-0.1787,0,-0.1609,-0.1625,-0.1665,-0.1678,-0.1686,-0.1704,-0.1721,-0.1737,-0.175,-0.1752,-0.1763,-0.1759,-0.1782,-0.1764,-0.1795,-0.1778,-0.1787,-0.179,-0.1792,-0.1793,-0.1773,-0.1803,-0.1856,-0.1862,-0.1795,-0.1794,-0.1794,0,-0.1641,-0.1673,-0.1701,-0.1709,-0.1724,-0.1737,-0.1744,-0.1756,-0.1767,-0.1781,-0.1788,-0.1805,-0.1814,-0.1827,-0.1827,-0.1815,-0.1858,-0.184,-0.1859,-0.1859,-0.1867,-0.1867,-0.1922,-0.1875,-0.1875,-0.1875,-0.1875,0,-0.1686,-0.1711,-0.1716,-0.1733,-0.1759,-0.176,-0.1786,-0.1792,-0.1802,-0.1819,-0.1814,-0.183,-0.183,-0.1846,-0.1847,-0.1871,-0.1876,-0.1877,-0.1876,-0.1877,-0.1876,-0.1882,-0.1879,-0.1876,-0.1876,-0.1876,-0.1876,0,-0.1726,-0.1731,-0.176,-0.1773,-0.1777,-0.1796,-0.1806,-0.1822,-0.1826,-0.1847,-0.1852,-0.1858,-0.1876,-0.1878,-0.19,-0.19,-0.1929,-0.1927,-0.1925,-0.1924,-0.1942,-0.194,-0.2003,-0.201,-0.1959,-0.196,-0.196,0,-0.1754,-0.1773,-0.1788,-0.1799,-0.1807,-0.1826,-0.1837,-0.1838,-0.185,-0.1865,-0.1879,-0.1897,-0.1911,-0.1941,-0.1946,-0.1963,-0.196,-0.198,-0.1962,-0.1961,-0.1958,-0.1957,-0.1958,-0.1984,-0.1984,-0.1985,-0.1985,0,-0.1803,-0.1804,-0.1821,-0.1839,-0.1852,-0.1866,-0.1879,-0.1888,-0.1891,-0.1904,-0.1924,-0.1935,-0.1957,-0.1975,-0.1991,-0.1997,-0.1991,-0.1991,-0.1996,-0.1996,-0.1993,-0.1994,-0.1934,-0.1989,-0.1989,-0.1988,-0.1988,-0.1988,-0.1837,-0.1852,-0.1865,-0.1884,-0.1894,-0.1906,-0.1921,-0.1927,-0.1943,-0.1962,-0.1961,-0.1982,-0.1993,-0.2014,-0.2022,-0.2037,-0.203,-0.2038,-0.2039,-0.2041,-0.2042,-0.1992,-0.204,-0.204,-0.204,-0.204,-0.204,0,-0.1883,-0.1891,-0.1909,-0.1927,-0.1942,-0.1936,-0.195,-0.1962,-0.1981,-0.1993,-0.2007,-0.2029,-0.2046,-0.2052,-0.2069,-0.208,-0.2078,-0.2084,-0.2083,-0.2084,-0.2048,-0.2042,-0.2086,-0.2086,-0.2086,-0.2086,-0.2086,-0.2086,-0.191,-0.1936,-0.1939,-0.1969,-0.1977,-0.1998,-0.2006,-0.2017,-0.2026,-0.205,-0.2065,-0.2069,-0.2079,-0.2096,-0.2111,-0.2112,-0.2118,-0.2125,-0.2125,-0.2091,-0.2087,-0.2082,-0.2076,-0.2127,-0.2127,-0.216,-0.216,-0.216]},{"header":{"parameterUnit":"m.s-1","parameterCategory":1,"la1":30.2991,"la2":30.254,"lo1":-89.0895,"lo2":-89.0444,"dy":0.0017,"dx":0.0017,"nx":28,"ny":28,"refTime":"2023-07-31T09:00:00:Z","depth":0,"parameterNumber":3,"parameterNumberName":"V-component_of_WINDS"},"data":[0,0,0,0,0,0,0,0,0,0,0,0,0,0,0,0,0,0,0,0,0,0,0,0,0,0,0,0,0,0,0,0,0,0,0,0,0,0,0,0,0,0,0,0,0,0,0,0,0,0,0,0,0,0,0,0,0,0,0.2233,0.2232,0,0.2182,0.2181,0.2181,0.2184,0.2185,0.2186,0.2187,0.2128,0.2125,0.2123,0,0,0,0,0,0,0,0,0,0,0,0,0,0.2327,0.2325,0.2233,0.2232,0.2232,0.2182,0.2181,0.218,0.2184,0.2185,0.2186,0.2187,0.2128,0.2126,0.2123,0,0,0,0,0,0,0,0,0,0,0,0,0,0.2282,0.2325,0.2233,0.2228,0.2227,0.2182,0.2181,0.218,0.2184,0.2185,0.2186,0.2187,0.2129,0.2126,0.2122,0.2078,0,0,0.2112,0.211,0,0,0,0,0,0,0,0,0.2285,0.2279,0.2229,0.2228,0.2227,0.2191,0.2193,0.2146,0.2184,0.22,0.2187,0.2188,0.2147,0.2142,0.213,0.2075,0.2073,0.2112,0.211,0.2108,0.2107,0,0,0,0,0,0,0,0.2288,0.2281,0.2213,0.2228,0.2227,0.2226,0.2221,0.2184,0.2167,0.2199,0.2199,0.2193,0.2147,0.2133,0.2129,0.2072,0.2112,0.2109,0.2107,0.2105,0.1975,0.1974,0,0,0,0,0,0,0.2293,0.2283,0.2214,0.2211,0.2259,0.2223,0.2217,0.2201,0.2168,0.2164,0.2192,0.2193,0.2139,0.2133,0.2127,0.2071,0.2108,0.2105,0.2103,0.1977,0.1975,0.1974,0,0,0,0,0,0,0.2295,0.2287,0.2216,0.2247,0.2238,0.222,0.2202,0.2199,0.2186,0.2163,0.2159,0.2182,0.2139,0.2131,0.209,0.2069,0.2103,0.21,0.1978,0.1976,0.1974,0.196,0,0,0,0,0,0,0.2298,0.2288,0.2272,0.2247,0.2237,0.2183,0.2201,0.2198,0.2181,0.2182,0.2152,0.2149,0.214,0.2095,0.2087,0.2065,0.2097,0.198,0.1978,0.1975,0.1962,0.1958,0.1954,0,0,0,0,0,0.2301,0.2269,0.2271,0.2263,0.2217,0.2181,0.2175,0.2167,0.2179,0.2162,0.2147,0.2149,0.2073,0.2091,0.2081,0.2058,0.1981,0.1978,0.1975,0.1964,0.1958,0.1954,0,0,0,0,0,0,0.229,0.2266,0.2268,0.2227,0.2207,0.2182,0.2161,0.2162,0.2136,0.2138,0.2127,0.212,0.2079,0.2064,0.2085,0.2012,0.2028,0.2023,0.2023,0.2018,0.2014,0.2017,0.2095,0,0,0,0,0,0.2283,0.2258,0.2237,0.2203,0.2193,0.2179,0.2163,0.2159,0.2136,0.2127,0.2109,0.2085,0.2055,0.2036,0.2007,0.196,0.1953,0.194,0.1935,0.1932,0.1927,0.1899,0.1893,0.1964,0.1964,0.1964,0,0,0.2268,0.2251,0.2236,0.2201,0.2184,0.2156,0.2171,0.2141,0.212,0.2121,0.2082,0.2067,0.204,0.1995,0.1974,0.1982,0.1906,0.1928,0.1926,0.1922,0.1896,0.1889,0.1883,0.1961,0.1962,0.1962,0,0,0.2226,0.2212,0.2181,0.2165,0.2141,0.2131,0.2124,0.2099,0.209,0.2051,0.2051,0.2024,0.1974,0.1954,0.1937,0.1887,0.1887,0.1878,0.1855,0.1828,0.1823,0.1818,0.1798,0.1792,0.1874,0.1873,0.1873,0,0.2209,0.217,0.2165,0.2135,0.2118,0.2121,0.2088,0.2072,0.2038,0.2026,0.2035,0.1972,0.1953,0.1903,0.1891,0.1878,0.1867,0.1881,0.1825,0.1819,0.1814,0.1796,0.1788,0.1872,0.1873,0.1873,0.1873,0,0.2149,0.2122,0.21,0.207,0.2051,0.202,0.2008,0.1989,0.1986,0.1975,0.1933,0.1912,0.1878,0.1866,0.1863,0.1815,0.182,0.1827,0.1843,0.1807,0.1789,0.1782,0.1871,0.1871,0.1872,0.1872,0,0,0.2098,0.2066,0.2058,0.2044,0.2017,0.1995,0.1963,0.1932,0.1915,0.1892,0.1863,0.1821,0.1827,0.1808,0.1802,0.1779,0.1738,0.1788,0.1787,0.1778,0.1682,0.1676,0.1668,0.1739,0.1738,0.1737,0.1684,0,0.2052,0.1998,0.1993,0.1943,0.1916,0.1918,0.189,0.1869,0.1858,0.1832,0.1818,0.1788,0.1799,0.1787,0.1764,0.1748,0.1719,0.1752,0.171,0.1708,0.1715,0.1659,0.1653,0.1604,0.1677,0.1676,0.1675,0,0.1991,0.1968,0.1917,0.1893,0.1882,0.1857,0.1828,0.1804,0.1779,0.1772,0.1751,0.1748,0.1713,0.1731,0.1681,0.1704,0.1686,0.1675,0.1673,0.1668,0.1688,0.165,0.1588,0.1581,0.1664,0.1665,0.1666,0,0.1957,0.1913,0.1876,0.1864,0.1836,0.1818,0.1805,0.1782,0.1764,0.1738,0.1725,0.1695,0.1678,0.1653,0.1641,0.1656,0.159,0.1608,0.1581,0.1582,0.1566,0.1567,0.1499,0.1558,0.1558,0.1558,0.1558,0,0.1905,0.1873,0.186,0.1837,0.1801,0.1794,0.1757,0.1745,0.1724,0.1697,0.1696,0.167,0.1657,0.1628,0.1619,0.1577,0.157,0.1561,0.1559,0.156,0.1561,0.1548,0.155,0.1556,0.1556,0.1557,0.1557,0,0.186,0.185,0.181,0.1787,0.1781,0.1755,0.1734,0.1711,0.17,0.1666,0.1657,0.1639,0.1605,0.1592,0.1549,0.1543,0.1495,0.1495,0.1504,0.1502,0.1476,0.1478,0.1395,0.1383,0.1451,0.1451,0.145,0,0.1827,0.1802,0.1777,0.176,0.1747,0.172,0.1702,0.1693,0.1674,0.1644,0.1624,0.1591,0.1564,0.1509,0.1491,0.1458,0.1457,0.143,0.1452,0.1454,0.1454,0.1455,0.1452,0.1426,0.1425,0.1425,0.1424,0,0.1768,0.1765,0.174,0.1713,0.1692,0.1669,0.1648,0.1633,0.1621,0.1599,0.1566,0.1545,0.1503,0.1469,0.1435,0.1419,0.1418,0.1418,0.141,0.141,0.1415,0.1411,0.1491,0.1419,0.142,0.142,0.142,0.1421,0.1726,0.1705,0.1684,0.1655,0.1639,0.1618,0.1595,0.1582,0.1555,0.1522,0.1518,0.1482,0.1456,0.1412,0.1394,0.1364,0.1371,0.1359,0.1356,0.1353,0.135,0.1422,0.1358,0.1358,0.1358,0.1358,0.1358,0,0.1666,0.1654,0.1628,0.1598,0.1576,0.158,0.1556,0.1536,0.1505,0.1483,0.1457,0.1417,0.1384,0.1364,0.133,0.131,0.1308,0.1301,0.1301,0.1297,0.1347,0.1357,0.1302,0.1302,0.1302,0.1302,0.1302,0.1302,0.1633,0.1595,0.1589,0.1543,0.153,0.1496,0.1481,0.1462,0.1444,0.1401,0.1375,0.1363,0.134,0.1305,0.1274,0.1269,0.1255,0.1247,0.1242,0.1288,0.1294,0.1299,0.1308,0.1245,0.1245,0.1194,0.1193,0.1193]}]]